NVS-01 (IRNSS-1J)

Last updated on Wed Sep 09 2026 00:03:03 GMT+0000 (Coordinated Universal Time)

1 56759U 23076A 26251.47073326 -.00000361 00000+0 00000+0 0 9997 2 56759 1.9761 240.5153 0004959 1.0106 44.9482 1.00266266 11959
UTC large
Height (km)
Speed (km/s)
/
Latitude / Longitude
Inclination (degrees)
Orbital Period (minutes)
Azimuth
Elevation
Range (km)
Doppler Factor

Next 0 passes for location: London (51.5072 / 0.1276)

No passes found over London.
NVS-01 (IRNSS-1J)